Torna al catalogo

FENGYUN 1C DEB

AttivoSSO
NORAD 31464·DEBRIS·🇨🇳 China

Lanciato May 10, 1999 da Taiyuan Satellite Launch Center

Loading…

Prossimi Passaggi (prossime 24 ore)

TLE

AggiornatoSource: Space-Track

Epoca: Sep 14, 2026, 08:51 UTC

1 31464U 99025BVC 26257.36876308  .00000293  00000-0  17958-3 0  9993
2 31464  98.7602 303.5644 0044020 178.5845 244.2695 14.12733548985715

Traccia FENGYUN 1C DEB in tempo reale con AllMySat

Download on the App Store